Regional Weather Roundup
Issued by NWS

Home | Current Version | Previous Version | Text Only | Print | Product List | Glossary On
Versions: 1 2 3 4 5 6 7 8 9 10 11 12 13 14 15 16 17 18 19 20 21 22 23 24 25 26 27 28 29 30 31 32 33 34 35 36 37 38 39 40 41 42 43 44 45 46 47 48 49 50
000
ASUS43 KIND 251509
RWRIN

WEATHER ROUNDUP FOR INDIANA
NATIONAL WEATHER SERVICE INDIANAPOLIS IN
1000 AM EST THU DEC 25 2014

NOTE: "FAIR" INDICATES FEW OR NO CLOUDS BELOW 12,000 FEET WITH NO
SIGNIFICANT WEATHER AND/OR OBSTRUCTIONS TO VISIBILITY.

* - STATION DOES NOT REPORT WEATHER SUCH AS PRECIPITATION OR FOG.

+ - STATION NOT QUALITY CONTROLLED BY THE NATIONAL WEATHER SERVICE.
    USE DATA WITH CAUTION...ESPECIALLY DEWPOINT AND RELATIVE
    HUMIDITY OBSERVATIONS.

INZ001>003-010>013-019-020-251600-
NORTHWEST INDIANA

CITY           SKY/WX    TMP DP  RH WIND       PRES   REMARKS
GARY /AIRPORT/ CLOUDY    36  27  69 W9        29.95
KNOX *+        CLOUDY    35  28  75 SW15G21   29.96R WCI  25
LA PORTE +     CLOUDY    36  31  83 SW15G23   29.95R
MICHIGAN CITY+ CLOUDY    34  27  75 SW14      29.95R WCI  24
MONTICELLO +   CLOUDY    35  31  85 SW12G20   30.00R WCI  27
RENSSELAER +   CLOUDY    36  32  87 SW17G25   29.98R
VALPARAISO     CLOUDY    34  28  79 SW14      29.96R WCI  25

$$

LMZ046-743>745-251600-
SOUTHERN LAKE MICHIGAN

STATION/POSITION TIME  TEMP WIND        PRES
                       AIR  DIR/SP/G
                 (UTC) (F)  (DEG/KT/KT) (MB)
MICHIGAN CITY    1500   35  200/ 20/ 24   N/A

$$

INZ004-005-014>016-021>024-251600-
NORTH CENTRAL INDIANA

CITY           SKY/WX    TMP DP  RH WIND       PRES   REMARKS
GOSHEN         CLOUDY    35  29  78 SW12      29.95R WCI  27
LOGANSPORT +   CLOUDY    34  30  86 W15G21    30.01R WCI  24
PERU/GRISSOM   CLOUDY    35  35 100 SW15      30.00R WCI  26
ROCHESTER +    CLOUDY    36  32  87 W13G23    29.99R
SOUTH BEND     CLOUDY    35  29  78 W17G24    29.95R WCI  25
WARSAW +       CLOUDY    34  30  86 W15       29.97R WCI  24

$$

INZ006>009-017-018-025>027-251600-
NORTHEAST INDIANA

CITY           SKY/WX    TMP DP  RH WIND       PRES   REMARKS
ANGOLA *+      CLOUDY    36  30  80 W14       29.92R
AUBURN +       CLOUDY    36  30  80 W14       29.96R
FORT WAYNE     PTSUNNY   36  31  82 SW18G28   29.98R
HUNTINGTON +   CLOUDY    35  31  85 W12G21    29.99R WCI  26

$$

INZ028-029-035-036-043>045-051>053-251600-
WEST CENTRAL INDIANA

CITY           SKY/WX    TMP DP  RH WIND       PRES   REMARKS
GREENCASTLE +  CLOUDY    34  28  80 SW6       30.05R WCI  29
LAFAYETTE      CLOUDY    35  30  82 SW10      30.01R WCI  27
TERRE HAUTE    CLOUDY    38  30  73 SW9       30.07R

$$

INZ030>032-037>040-046>048-054>057-064-065-251600-
CENTRAL INDIANA

CITY           SKY/WX    TMP DP  RH WIND       PRES   REMARKS
CP ATTERBURY + CLOUDY    36  32  87 MISG      30.08R
COLUMBUS       CLOUDY    36  32  87 SW10      30.08R
FRANKFORT +    CLOUDY    36  32  87 SW13      30.03R
INDIANAPOLIS   CLOUDY    34  29  82 SW14      30.05R WCI  25
-EAGLE CREEK   CLOUDY    35  30  82 SW7       30.04R WCI  29
KOKOMO *+      CLOUDY    36  30  80 W16G24    30.01R
MARION +       CLOUDY    35  31  86 SW13      30.01R WCI  26
MT COMFORT *+  CLOUDY    36  28  75 SW7       30.05R
SHELBYVILLE    CLOUDY    37  31  78 SW14      30.06R
ZIONSVILLE +   CLOUDY    36  29  78 SW12G22   30.04R

$$

INZ033-034-041-042-049-050-058-059-251600-
EAST CENTRAL INDIANA

CITY           SKY/WX    TMP DP  RH WIND       PRES   REMARKS
MUNCIE         CLOUDY    36  32  85 W13       30.02R

$$

INZ060-061-067>069-081>083-085>088-251600-
SOUTHWEST INDIANA

CITY           SKY/WX    TMP DP  RH WIND       PRES   REMARKS
EVANSVILLE     MOSUNNY   41  33  73 SW12      30.13R
HUNTINGBURG *+ CLOUDY    39  30  70 SW8       30.12R
WASHINGTON +   CLOUDY    38  32  78 SW6       30.10R

$$

INZ062-063-066-070>080-084-089>092-251600-
SOUTH CENTRAL AND SOUTHEAST INDIANA

CITY           SKY/WX    TMP DP  RH WIND       PRES   REMARKS
BLOOMINGTON    CLOUDY    37  31  78 SW9       30.07R

$$




USA.gov is the U.S. government's official web portal to all federal, state and local government web resources and services.